Wind_Speed
26 28 29 28 28 29 30 30 30 33 36 38 39 40 42 42 45 46 48 49 50 51 52 53 53 52 51 49 47 45 45 47 48 47 46 45 43 42 42 41 38 39 49
30 30 31 30 32 34 33 31 33 36 39 40 39 39 41 44 46 49 49 50 53 56 58 58 58 53 52 52 52 52 52 53 53 53 52 51 50 48 47 46 44 42 41
27 28 29 32 33 33 33 35 38 40 41 41 42 44 45 45 46 49 50 51 53 57 58 60 63 64 62 60 61 59 58 58 59 58 57 55 54 53 52 51 50 49 48
27 29 31 32 33 35 37 38 41 43 44 44 47 50 51 53 52 53 53 55 57 61 62 61 63 66 68 69 65 62 62 62 63 62 60 60 60 59 58 56 54 53 53
29 31 34 35 36 39 41 41 43 46 47 47 49 52 55 57 57 59 59 60 61 64 66 68 69 70 72 70 64 63 64 65 65 65 65 65 65 65 62 60 58 56 56
31 33 35 38 40 41 42 44 47 49 50 51 53 56 58 59 61 64 65 64 65 66 67 72 75 76 76 74 74 71 69 68 68 69 71 72 70 70 68 66 63 61 60
32 35 38 41 43 45 47 49 51 54 55 57 59 59 60 63 63 57 55 54 56 57 59 65 68 73 79 80 81 81 78 74 71 71 73 78 78 76 77 73 68 66 64
35 40 43 45 46 49 51 52 55 58 59 60 60 59 58 54 50 49 50 51 51 53 55 56 54 53 55 62 66 68 72 72 68 63 62 67 78 85 86 79 74 70 67
43 46 48 48 50 52 53 54 57 59 60 57 53 48 42 40 41 43 44 44 45 47 51 54 53 51 50 50 49 50 54 57 61 62 62 64 71 80 87 88 79 76 73
51 52 52 51 51 53 55 57 59 58 54 46 42 40 40 40 40 41 41 42 44 47 50 51 52 51 51 51 49 47 50 55 61 60 59 62 66 71 75 85 85 79 78
58 56 56 56 56 54 55 59 59 52 44 41 41 41 39 40 44 45 46 45 47 52 55 53 50 49 49 49 49 47 47 48 49 54 57 58 56 57 62 73 82 76 73
62 59 58 58 57 55 57 58 53 44 41 43 43 41 40 42 44 48 50 52 53 55 57 58 52 47 46 46 46 45 45 46 46 49 50 47 44 45 53 60 75 76 70
64 59 57 58 57 59 57 51 43 41 44 45 43 43 45 47 49 52 54 56 56 55 55 55 53 48 46 43 40 40 44 45 42 41 43 41 39 35 35 38 55 69 71
59 55 57 57 58 54 46 42 43 44 45 44 45 47 50 52 55 58 60 60 58 56 56 51 47 47 48 43 38 38 40 38 36 35 36 36 35 33 32 31 36 43 48
56 54 55 56 50 42 42 44 44 43 44 46 50 53 55 57 60 62 62 61 60 59 55 48 43 44 48 45 39 37 36 34 35 34 33 32 31 31 30 31 31 35 40
52 50 52 47 43 41 42 42 44 45 48 53 56 58 60 62 63 63 61 59 59 60 56 45 38 40 46 45 41 36 32 33 34 34 33 30 29 30 32 33 33 36 39
49 50 46 43 43 43 43 44 48 52 56 59 61 63 64 64 61 58 57 55 54 54 49 39 32 36 41 39 37 33 27 28 31 31 30 31 32 32 34 35 35 35 38
49 44 41 43 43 44 46 50 54 58 61 63 64 65 63 59 55 53 52 50 48 46 42 34 29 33 33 30 27 21 17 19 23 27 30 32 34 36 35 34 37 39 41
45 42 43 44 46 49 52 54 59 62 64 65 64 62 59 54 49 48 46 43 41 40 38 31 26 28 27 23 18 15 16 18 20 23 25 27 30 31 32 33 35 39 42
42 44 45 46 50 54 57 59 62 64 64 64 62 58 53 48 44 42 39 38 37 36 31 25 23 23 22 19 15 14 15 16 19 20 21 24 26 27 30 35 39 43 46
44 45 48 52 56 58 59 60 61 61 60 57 52 47 44 41 38 36 34 33 31 28 24 21 19 19 18 14 13 13 14 16 18 18 18 20 22 26 31 35 40 44 44
46 49 52 55 57 59 60 59 57 55 54 52 48 44 42 39 35 31 28 27 24 22 20 17 16 14 13 11 10 11 13 16 15 15 16 18 21 24 28 29 32 34 35
49 52 54 57 58 57 56 53 52 52 51 49 43 37 34 31 25 21 22 22 20 17 16 15 13 11 9 7 8 9 12 14 12 12 13 14 17 20 20 20 18 19 24
51 53 55 56 54 52 49 47 46 43 42 39 34 31 26 22 19 19 21 20 17 13 13 13 12 11 8 5 6 9 11 11 10 7 6 7 9 10 14 10 6 9 8
50 52 53 52 49 46 43 40 38 39 42 38 31 26 21 18 19 18 17 15 11 10 12 11 11 9 5 6 6 6 7 6 3 2 3 4 7 10 9 3 1 1 9
49 49 49 48 44 41 38 37 40 42 39 30 23 19 17 16 15 13 10 10 11 12 11 12 12 8 7 8 7 9 9 5 2 5 8 8 10 10 7 8 11 11 19
Wind_Direction
294 294 293 297 297 298 299 299 299 298 297 295 293 291 288 284 280 279 277 273 271 272 274 274 274 275 274 271 269 269 268 268 266 264 262 260 256 251 250 250 252 256 250
296 298 301 303 302 303 303 302 300 299 298 295 292 292 285 282 283 281 280 276 272 269 268 269 271 272 273 274 275 276 272 271 271 270 267 264 260 256 251 251 251 248 247
295 299 305 303 301 302 301 301 302 302 299 293 294 296 288 281 284 285 285 282 277 273 271 270 268 266 266 267 268 266 267 268 267 266 264 263 262 260 257 252 249 248 246
303 306 308 308 305 303 302 300 298 297 297 294 292 291 287 283 283 283 282 281 279 276 272 270 270 270 268 264 265 264 262 262 262 262 261 262 261 258 257 255 251 249 249
306 307 308 306 304 303 302 299 296 295 295 292 288 286 285 283 283 283 284 282 280 278 275 274 273 273 270 267 266 262 259 259 258 257 257 258 259 258 255 255 254 250 247
303 305 306 304 303 302 301 298 296 296 294 292 290 287 285 284 284 284 284 282 280 278 276 275 272 270 269 268 267 264 259 258 258 256 255 255 254 254 253 253 253 252 250
309 308 308 306 306 306 305 303 301 300 297 295 292 288 286 284 284 284 283 284 284 281 281 280 279 274 272 271 269 266 263 261 263 264 260 255 250 248 249 250 249 249 248
315 316 315 311 310 308 306 304 302 299 296 295 292 290 288 283 279 282 283 284 285 284 283 283 282 280 278 276 272 266 263 262 262 260 261 259 254 247 245 245 245 245 245
319 317 315 311 309 307 305 303 302 301 299 295 294 294 290 286 283 281 280 282 285 288 289 287 282 280 279 278 276 270 263 258 257 258 262 265 261 251 244 240 239 241 240
320 315 311 308 307 307 305 304 304 304 302 297 296 296 294 292 288 286 288 289 292 293 296 293 285 278 276 275 274 271 267 264 259 259 264 272 265 258 252 241 236 238 241
319 315 311 309 307 306 305 305 305 303 300 294 294 295 293 293 293 294 293 293 294 295 297 297 291 283 280 276 272 269 267 264 260 257 265 273 269 264 257 244 235 234 235
316 315 313 310 308 307 307 307 303 299 295 293 293 292 293 295 295 295 295 295 294 296 298 299 296 288 281 277 274 271 266 263 261 260 264 268 267 264 258 247 234 230 230
314 313 310 308 309 309 308 304 298 294 292 293 292 293 296 295 295 294 294 294 294 296 297 296 294 290 281 277 276 273 263 261 264 264 263 262 262 261 258 249 235 231 231
312 310 309 309 309 309 304 300 299 296 295 293 292 294 294 294 296 296 295 294 295 296 297 295 288 282 276 274 276 271 261 260 261 260 259 260 259 258 251 245 234 232 236
310 310 310 310 309 306 303 302 299 297 295 293 294 294 294 295 296 296 294 293 294 295 297 294 283 272 267 269 273 273 264 258 258 258 261 262 257 252 246 241 235 234 235
310 312 311 309 306 304 302 299 297 297 297 297 296 295 296 296 295 293 291 292 293 294 296 294 280 262 259 262 271 276 266 254 254 257 259 258 251 245 243 242 242 241 241
313 312 309 306 305 305 303 302 300 300 299 298 298 297 296 295 293 290 289 291 291 293 295 292 275 256 255 262 273 276 263 250 249 250 248 248 248 251 250 248 246 246 245
310 309 307 306 306 307 307 304 301 299 299 299 298 298 297 295 292 290 290 289 289 291 291 286 266 254 255 263 272 264 248 238 240 241 243 245 247 251 250 252 252 253 249
309 308 306 308 309 308 306 304 302 301 300 300 300 299 297 294 291 289 288 285 286 288 287 277 252 251 254 264 262 248 237 236 241 241 247 250 249 245 250 253 252 252 250
309 309 309 311 310 308 308 306 304 303 303 303 301 301 299 295 290 287 285 284 286 287 282 265 245 244 253 260 246 241 241 244 242 250 257 255 249 248 252 252 255 258 258
312 312 313 313 312 309 307 306 306 306 305 304 306 308 304 298 290 285 284 285 286 283 273 256 237 238 248 247 237 236 245 252 257 256 261 252 248 253 255 261 261 260 255
316 315 315 313 310 308 308 310 310 308 305 305 307 306 303 298 292 285 282 284 285 278 265 242 226 231 233 238 238 237 247 255 259 259 255 248 253 259 263 269 271 264 260
317 316 317 313 311 311 313 313 310 308 306 306 308 307 303 298 294 284 281 286 287 272 249 223 214 200 215 235 241 236 239 244 251 260 249 256 268 274 271 278 283 272 265
319 318 315 313 315 316 316 314 314 316 317 316 313 310 306 300 295 286 284 284 280 254 219 202 195 196 200 204 222 221 218 235 251 251 269 290 300 307 293 288 287 305 295
318 316 314 317 320 320 320 319 320 322 321 316 309 306 298 291 290 286 281 269 249 209 185 178 176 180 191 200 202 201 203 210 214 16 26 13 23 10 354 18 33 322 138
317 317 320 324 325 325 324 320 321 324 325 320 310 304 298 294 294 287 259 222 195 171 152 156 168 180 191 184 177 164 159 160 97 58 64 48 43 35 42 58 77 123 146
Height
5839 5837 5836 5834 5832 5829 5827 5825 5824 5822 5820 5817 5814 5812 5809 5807 5805 5804 5803 5801 5798 5797 5797 5796 5795 5795 5795 5795 5796 5796 5797 5798 5798 5799 5799 5800 5801 5803 5804 5806 5809 5811 5813
5834 5832 5831 5828 5825 5821 5819 5818 5817 5814 5811 5808 5805 5802 5799 5796 5794 5791 5789 5787 5786 5784 5783 5782 5782 5782 5783 5783 5783 5783 5784 5785 5786 5786 5787 5789 5790 5792 5795 5796 5797 5800 5804
5831 5829 5827 5824 5820 5816 5813 5811 5809 5805 5802 5799 5796 5793 5790 5786 5783 5779 5776 5773 5771 5770 5769 5769 5768 5769 5768 5769 5770 5770 5771 5771 5772 5772 5773 5776 5777 5779 5781 5783 5786 5789 5792
5825 5823 5820 5817 5813 5810 5807 5805 5801 5798 5796 5793 5789 5783 5779 5775 5771 5767 5764 5761 5758 5755 5754 5752 5751 5750 5750 5750 5752 5754 5756 5757 5757 5758 5759 5760 5762 5764 5766 5768 5772 5776 5779
5819 5816 5812 5809 5806 5802 5799 5795 5792 5790 5786 5781 5776 5770 5765 5760 5756 5752 5750 5746 5743 5741 5738 5735 5733 5731 5730 5731 5732 5735 5737 5739 5741 5742 5743 5745 5747 5749 5750 5752 5755 5759 5764
5812 5808 5805 5801 5797 5793 5790 5785 5780 5776 5772 5766 5761 5755 5750 5745 5740 5736 5732 5728 5725 5722 5719 5717 5713 5711 5710 5710 5711 5713 5717 5719 5721 5723 5726 5727 5730 5731 5732 5736 5740 5743 5748
5804 5800 5796 5791 5786 5781 5776 5771 5765 5760 5754 5749 5744 5740 5735 5729 5724 5721 5716 5711 5707 5703 5701 5697 5693 5691 5691 5690 5690 5692 5696 5700 5702 5702 5703 5706 5710 5712 5713 5718 5723 5728 5733
5794 5788 5783 5778 5772 5767 5762 5756 5750 5744 5738 5732 5726 5722 5718 5714 5709 5707 5702 5698 5694 5690 5686 5681 5676 5673 5670 5669 5668 5670 5674 5678 5680 5681 5682 5682 5684 5689 5692 5697 5703 5710 5716
5781 5775 5769 5763 5758 5753 5747 5741 5735 5728 5722 5716 5709 5703 5699 5697 5696 5695 5691 5687 5683 5677 5672 5667 5663 5660 5656 5653 5653 5654 5656 5659 5662 5664 5666 5665 5662 5662 5665 5673 5682 5690 5696
5769 5763 5757 5750 5744 5738 5732 5725 5719 5712 5705 5700 5695 5690 5686 5683 5681 5680 5678 5674 5669 5663 5659 5654 5649 5645 5641 5638 5638 5639 5641 5641 5643 5646 5647 5645 5640 5638 5639 5647 5657 5666 5673
5757 5750 5744 5737 5729 5721 5715 5709 5702 5696 5691 5687 5683 5679 5676 5672 5668 5664 5661 5659 5655 5648 5642 5638 5635 5631 5627 5624 5622 5623 5624 5624 5626 5629 5630 5627 5621 5618 5619 5624 5634 5644 5654
5742 5735 5730 5723 5716 5708 5701 5694 5687 5682 5679 5675 5671 5667 5663 5660 5656 5651 5647 5644 5641 5636 5626 5620 5618 5616 5613 5609 5607 5608 5609 5609 5611 5612 5613 5611 5607 5604 5604 5607 5615 5625 5636
5728 5723 5715 5708 5702 5695 5686 5680 5674 5670 5666 5663 5659 5655 5650 5646 5642 5638 5634 5630 5626 5622 5614 5606 5602 5600 5598 5597 5595 5594 5594 5596 5598 5599 5597 5596 5595 5594 5594 5594 5601 5612 5622
5716 5709 5701 5695 5687 5679 5672 5668 5664 5659 5654 5651 5647 5643 5638 5633 5628 5622 5617 5612 5609 5606 5600 5593 5589 5587 5584 5583 5583 5581 5581 5583 5586 5586 5585 5585 5585 5585 5587 5588 5593 5601 5611
5706 5697 5688 5681 5673 5666 5661 5657 5653 5648 5644 5640 5636 5630 5624 5618 5612 5606 5599 5593 5591 5589 5586 5579 5575 5573 5569 5568 5568 5567 5568 5570 5573 5574 5575 5575 5575 5577 5579 5582 5586 5593 5601
5696 5687 5678 5671 5663 5656 5651 5646 5642 5637 5633 5627 5621 5615 5607 5601 5594 5588 5582 5577 5573 5570 5569 5563 5561 5558 5554 5554 5555 5555 5555 5557 5560 5563 5564 5565 5566 5568 5571 5575 5579 5584 5590
5684 5675 5668 5661 5654 5646 5641 5635 5631 5625 5618 5611 5604 5597 5590 5584 5577 5571 5566 5562 5557 5553 5552 5550 5548 5544 5543 5544 5544 5543 5544 5546 5550 5553 5555 5557 5559 5561 5564 5567 5570 5574 5578
5671 5662 5655 5649 5642 5636 5630 5624 5618 5610 5602 5595 5586 5579 5572 5566 5560 5555 5551 5548 5544 5540 5538 5539 5536 5534 5534 5534 5534 5534 5535 5538 5541 5544 5547 5549 5550 5552 5554 5557 5559 5562 5565
5657 5649 5644 5637 5631 5625 5617 5610 5602 5594 5586 5577 5568 5561 5555 5550 5545 5540 5537 5534 5532 5528 5526 5526 5525 5524 5526 5526 5527 5528 5529 5532 5534 5536 5539 5540 5542 5544 5546 5548 5548 5549 5551
5646 5640 5634 5625 5618 5612 5603 5595 5587 5578 5568 5558 5549 5542 5537 5533 5530 5527 5524 5522 5520 5518 5516 5515 5515 5517 5518 5520 5522 5522 5525 5526 5528 5531 5533 5534 5535 5536 5537 5536 5535 5535 5537
5637 5629 5622 5613 5605 5598 5589 5580 5571 5561 5551 5543 5535 5528 5523 5518 5516 5514 5513 5512 5510 5508 5508 5507 5509 5511 5512 5514 5516 5518 5521 5521 5523 5526 5527 5528 5528 5528 5526 5525 5522 5520 5520
5625 5618 5610 5602 5593 5584 5574 5564 5555 5546 5536 5528 5523 5517 5511 5507 5505 5504 5504 5504 5502 5501 5501 5502 5504 5506 5508 5510 5512 5515 5517 5517 5519 5521 5522 5522 5521 5519 5516 5513 5508 5505 5504
5615 5607 5597 5589 5581 5571 5561 5551 5541 5531 5522 5515 5511 5507 5502 5498 5496 5497 5498 5497 5496 5495 5496 5498 5500 5503 5505 5507 5509 5511 5512 5514 5516 5517 5518 5517 5515 5511 5506 5502 5497 5493 5489
5604 5595 5586 5579 5569 5559 5549 5540 5530 5520 5512 5505 5502 5499 5495 5492 5491 5492 5492 5492 5491 5491 5493 5495 5498 5502 5504 5506 5507 5508 5510 5511 5512 5514 5515 5512 5508 5503 5499 5495 5492 5487 5480
5594 5585 5578 5569 5559 5548 5539 5530 5523 5514 5506 5499 5494 5491 5489 5488 5486 5486 5486 5486 5487 5489 5491 5495 5498 5501 5504 5506 5507 5508 5509 5510 5512 5513 5512 5509 5505 5500 5495 5493 5491 5487 5484
5586 5578 5569 5559 5549 5540 5531 5524 5516 5508 5499 5491 5487 5485 5483 5482 5481 5481 5481 5483 5485 5488 5491 5494 5498 5501 5504 5506 5507 5508 5509 5510 5513 5513 5511 5507 5504 5501 5496 5493 5491 5490 5491